This demonstration page uses our WeatherBlox Daily Observations layout. Learn more.

40.92945, -100.16068

Hourly Observations for March 15, 2017

Temp ( °F °C ) Dew Point ( °F °C ) Humidity (%) Winds ( mph kmh ) Pressure ( in mb ) Visibility ( mi km ) Precip ( " mm )
12:15 am 00:15 Cloudy 27 -3 21 -6.1 79 79 SSE 15 24 30.45 1031 10 16.0934 0 0
12:35 am 00:35 Cloudy 27 -2.8 21 -6.1 78 78 SSE 10 17 30.48 1032 10 16.0934 0 0
12:55 am 00:55 Cloudy 27 -2.7 21 -6 78 78 SSE 13 20 30.45 1031 10 16.0934 0 0
1:15 am 01:15 Cloudy 27 -2.6 21 -6 78 78 SSE 10 17 30.42 1030 10 16.0934 0 0
1:35 am 01:35 Cloudy 27 -2.6 21 -6 78 78 SSE 10 17 30.48 1032 10 16.0934 0 0
1:55 am 01:55 Cloudy 28 -2.5 21 -6 77 77 S 13 20 30.48 1032 10 16.0934 0 0
2:15 am 02:15 Cloudy 28 -2.5 21 -6 77 77 S 10 17 30.48 1032 10 16.0934 0 0
2:35 am 02:35 Cloudy 28 -2.5 21 -6.1 77 77 S 12 19 30.42 1030 10 16.0934 0 0
2:55 am 02:55 Cloudy 28 -2.5 20 -6.5 74 74 S 14 22 30.42 1030 10 16.0934 0 0
3:15 am 03:15 Cloudy 27 -2.6 20 -6.5 75 75 S 13 20 30.42 1030 10 16.0934 0 0
3:35 am 03:35 Cloudy 27 -2.6 20 -6.5 75 75 S 13 20 30.42 1030 10 16.0934 0 0
3:55 am 03:55 Mostly Cloudy 27 -2.6 20 -6.6 74 74 S 10 17 30.42 1030 10 16.0934 0 0
4:15 am 04:15 Partly Cloudy 27 -2.7 20 -6.6 75 75 SSE 9 15 30.39 1029 10 16.0934 0 0
4:35 am 04:35 Partly Cloudy 27 -3 20 -6.8 75 75 SSE 13 20 30.42 1030 10 16.0934 0 0
4:55 am 04:55 Partly Cloudy 26 -3.3 19 -7 76 76 SSE 10 17 30.42 1030 10 16.0934 0 0
5:15 am 05:15 Mostly Cloudy 26 -3.1 20 -6.7 76 76 SSE 12 19 30.42 1030 10 16.0934 0 0
5:35 am 05:35 Cloudy 26 -3.3 20 -6.7 78 78 SSE 12 19 30.42 1030 10 16.0934 0 0
5:55 am 05:55 Cloudy 26 -3.3 20 -6.7 78 78 SSE 15 24 30.39 1029 10 16.0934 0 0
6:15 am 06:15 Partly Cloudy 26 -3.5 20 -6.7 79 79 SSE 10 17 30.39 1029 10 16.0934 0 0
6:35 am 06:35 Clear 25 -3.7 20 -6.8 79 79 SSE 13 20 30.39 1029 10 16.0934 0 0
6:55 am 06:55 Partly Cloudy 25 -3.8 20 -6.8 80 80 SSE 12 19 30.39 1029 10 16.0934 0 0
7:15 am 07:15 Partly Cloudy 25 -3.7 20 -6.7 80 80 SSE 12 19 30.39 1029 10 16.0934 0 0
7:35 am 07:35 Mostly Cloudy 25 -3.7 20 -6.8 79 79 SSE 13 20 30.36 1028 10 16.0934 0 0
7:55 am 07:55 Mostly Cloudy 25 -4 20 -6.8 81 81 SSE 14 22 30.36 1028 10 16.0934 0 0
8:15 am 08:15 Partly Cloudy 25 -3.8 20 -6.7 81 81 SSE 13 20 30.36 1028 10 16.0934 0 0
8:35 am 08:35 Sunny 26 -3.5 20 -6.5 80 80 S 16 26 30.33 1027 10 16.0934 0 0
8:55 am 08:55 Sunny 26 -3.1 20 -6.5 78 78 S 13 20 30.33 1027 10 16.0934 0 0
9:15 am 09:15 Sunny 28 -2.3 21 -6.1 75 75 S 14 22 30.33 1027 10 16.0934 0 0
9:35 am 09:35 Sunny 30 -1.3 21 -5.9 71 71 S 17 28 30.33 1027 10 16.0934 0 0
9:55 am 09:55 Sunny 31 -0.6 22 -5.7 69 69 S 13 20 30.33 1027 10 16.0934 0 0
10:15 am 10:15 Sunny 32 0 22 -5.5 67 67 S 16 26 30.3 1026 10 16.0934 0 0
10:35 am 10:35 Sunny 34 0.9 22 -5.5 63 63 S 15 24 30.3 1026 10 16.0934 0 0
10:55 am 10:55 Sunny 36 2.1 23 -5.2 59 59 S 16 26 30.3 1026 10 16.0934 0 0
11:15 am 11:15 Sunny 37 2.8 23 -5.1 56 56 SSW 18 30 30.27 1025 10 16.0934 0 0
11:35 am 11:35 Partly Cloudy 39 3.9 23 -5 53 53 SSW 16 26 30.24 1024 10 16.0934 0 0
11:55 am 11:55 Partly Cloudy 41 5 24 -4.5 51 51 S 15 24 30.24 1024 10 16.0934 0 0
12:15 pm 12:15 Sunny 43 6 24 -4.4 48 48 S 15 24 30.21 1023 10 16.0934 0 0
12:35 pm 12:35 Sunny 44 6.7 24 -4.3 46 46 S 14 22 30.21 1023 10 16.0934 0 0
12:55 pm 12:55 Sunny 45 7.4 24 -4.4 43 43 SSW 15 24 30.18 1022 10 16.0934 0 0
1:15 pm 13:15 Sunny 47 8.2 24 -4.2 42 42 SSW 16 26 30.15 1021 10 16.0934 0 0
1:35 pm 13:35 Sunny 48 9 25 -3.9 40 40 S 13 20 30.15 1021 10 16.0934 0 0
1:55 pm 13:55 Sunny 49 9.7 26 -3.6 39 39 S 12 19 30.12 1020 10 16.0934 0 0
2:15 pm 14:15 Sunny 51 10.7 25 -3.7 36 36 SSW 13 20 30.12 1020 10 16.0934 0 0
2:35 pm 14:35 Sunny 53 11.4 26 -3.6 35 35 S 10 17 30.09 1019 10 16.0934 0 0
2:55 pm 14:55 Sunny 54 12.1 26 -3.3 34 34 SSW 14 22 30.06 1018 10 16.0934 0 0
3:15 pm 15:15 Sunny 55 12.5 26 -3.2 34 34 SSW 14 22 30.06 1018 10 16.0934 0 0
3:35 pm 15:35 Sunny 55 12.8 26 -3.1 33 33 S 13 20 30.03 1017 10 16.0934 0 0
3:55 pm 15:55 Sunny 57 13.8 27 -2.8 32 32 SSE 15 24 30 1016 10 16.0934 0 0
4:15 pm 16:15 Sunny 56 13.5 26 -3.1 32 32 S 14 22 30 1016 10 16.0934 0 0
4:35 pm 16:35 Sunny 56 13.5 27 -3 32 32 S 14 22 30 1016 10 16.0934 0 0
4:55 pm 16:55 Sunny 57 14 27 -2.8 31 31 S 14 22 30 1016 10 16.0934 0 0
5:15 pm 17:15 Sunny 58 14.3 27 -2.6 31 31 S 13 20 30 1016 10 16.0934 0 0
5:35 pm 17:35 Sunny 58 14.4 28 -2.5 31 31 S 10 17 30 1016 10 16.0934 0 0
5:55 pm 17:55 Sunny 60 15.3 28 -2.3 30 30 SSE 15 24 30 1016 10 16.0934 0 0
6:15 pm 18:15 Sunny 60 15.3 28 -2.3 30 30 S 12 19 30 1016 10 16.0934 0 0
6:35 pm 18:35 Sunny 58 14.6 28 -2.3 31 31 S 12 19 30 1016 10 16.0934 0 0
6:55 pm 18:55 Sunny 57 13.8 28 -2.1 33 33 SSE 9 15 30 1016 10 16.0934 0 0
7:15 pm 19:15 Sunny 56 13.1 28 -2.1 35 35 SSE 9 15 30.03 1017 10 16.0934 0 0
7:35 pm 19:35 Sunny 53 11.6 28 -2.1 39 39 SSE 8 13 30.03 1017 10 16.0934 0 0
7:55 pm 19:55 Clear 53 11.5 28 -2 39 39 SE 9 15 30.03 1017 10 16.0934 0 0
8:15 pm 20:15 Clear 52 11 28 -2 41 41 SSE 10 17 30.03 1017 10 16.0934 0 0
8:35 pm 20:35 Clear 51 10.6 28 -2.1 41 41 SSE 12 19 30.03 1017 10 16.0934 0 0
8:55 pm 20:55 Clear 50 10 28 -2 43 43 SSE 12 19 30.06 1018 10 16.0934 0 0
9:15 pm 21:15 Clear 49 9.4 28 -2 45 45 SE 10 17 30.06 1018 10 16.0934 0 0
9:35 pm 21:35 Clear 47 8.5 28 -2 48 48 SSE 12 19 30.06 1018 10 16.0934 0 0
9:55 pm 21:55 Clear 46 8 28 -2 50 50 SSE 10 17 30.06 1018 10 16.0934 0 0
10:15 pm 22:15 Clear 46 7.6 29 -1.8 52 52 SSE 10 17 30.06 1018 10 16.0934 0 0
10:35 pm 22:35 Clear 45 7.3 29 -1.9 52 52 SSE 12 19 30.06 1018 10 16.0934 0 0
10:55 pm 22:55 Clear 45 7 29 -1.9 53 53 SSE 12 19 30.09 1019 10 16.0934 0 0
11:15 pm 23:15 Clear 45 7 29 -1.9 53 53 SSE 10 17 30.09 1019 10 16.0934 0 0
11:35 pm 23:35 Clear 44 6.5 29 -1.9 55 55 SSE 12 19 30.09 1019 10 16.0934 0 0
11:55 pm 23:55 Clear 43 6.1 29 -1.8 57 57 SSE 13 20 30.09 1019 10 16.0934 0 0

Powered by AerisWeather